GW3305 Weather Reports


Display with metric or nautical units.
time (UTC)temp
F
wind
direction
speed
MPH
gust
MPH
rain 1hr
in
rain 24hr
in
rain mn
in
humidity
%
barometer
mb
20260506113100 54 202 2.0 8.0 0.00 0.03 0.00 88 1020.4
20260506111603 54 259 2.0 7.0 0.00 0.03 0.00 88 1020.3
20260506110111 54 259 1.0 5.0 0.00 0.03 0.00 88 1020.2
20260506104601 54 205 0.0 5.0 0.00 0.04 0.00 88 1020.1
20260506103057 54 213 2.0 5.0 0.00 0.04 0.00 89 1020.0
20260506101556 54 253 1.0 4.0 0.00 0.04 0.00 89 1019.8
20260506100056 54 0 1.0 4.0 0.00 0.04 0.00 89 1019.9
20260506094559 54 204 1.0 4.0 0.00 0.05 0.00 89 1019.8
20260506093100 54 275 1.0 5.0 0.00 0.05 0.00 89 1019.9
20260506091601 54 177 2.0 5.0 0.00 0.05 0.00 89 1020.0
20260506090101 54 218 0.0 5.0 0.00 0.05 0.00 89 1019.9
20260506084602 54 0 0.0 5.0 0.00 0.07 0.00 89 1020.0
20260506083057 54 186 1.0 5.0 0.00 0.07 0.00 89 1019.8
20260506081600 54 0 0.0 4.0 0.00 0.07 0.00 89 1019.9
20260506080105 54 179 2.0 6.0 0.00 0.07 0.00 89 1019.8
20260506073058 55 192 2.0 5.0 0.00 0.09 0.00 89 1019.5
20260506071602 55 186 2.0 6.0 0.00 0.09 0.00 88 1019.5
20260506061555 55 175 3.0 6.0 0.00 0.11 0.09 88 1019.4
20260506050105 55 172 2.0 7.0 0.00 0.12 0.09 87 1018.8
20260506044555 55 185 2.0 7.0 0.00 0.14 0.09 87 1018.5
20260506043100 55 164 3.0 6.0 0.00 0.14 0.09 87 1018.5
20260506041558 55 205 1.0 5.0 0.00 0.14 0.09 87 1018.3
20260506040054 55 199 0.0 6.0 0.00 0.14 0.09 87 1018.1
20260506034614 56 187 2.0 8.0 0.00 0.15 0.09 86 1018.1
20260506033056 56 194 3.0 7.0 0.00 0.15 0.09 86 1018.0
20260506031607 56 188 3.0 8.0 0.00 0.15 0.09 85 1017.7
20260506030058 56 185 3.0 9.0 0.00 0.15 0.09 85 1017.5
20260506024613 57 188 2.0 10.0 0.00 0.18 0.09 84 1017.1
20260506023055 57 202 4.0 9.0 0.00 0.18 0.09 84 1017.4
20260506021555 57 188 4.0 10.0 0.00 0.18 0.09 83 1017.2
20260506020058 58 176 4.0 10.0 0.00 0.18 0.09 83 1017.2
20260506014557 58 192 3.0 9.0 0.00 0.21 0.09 83 1017.3
20260506013108 58 184 4.0 10.0 0.00 0.21 0.09 83 1017.5
20260506011607 58 185 5.0 10.0 0.00 0.21 0.09 82 1017.4
20260506010058 58 178 5.0 9.0 0.00 0.21 0.09 82 1017.3
20260506004558 58 211 4.0 8.0 0.00 0.25 0.09 82 1017.3
20260506003058 58 224 5.0 9.0 0.00 0.25 0.09 82 1017.3
20260506001557 59 215 5.0 10.0 0.00 0.25 0.09 81 1017.4
20260506000058 59 205 4.0 9.0 0.00 0.25 0.09 81 1017.3
20260505234557 59 199 4.0 10.0 0.00 0.25 0.09 80 1017.3
20260505233059 59 182 4.0 10.0 0.00 0.25 0.09 80 1017.4
20260505231601 60 164 4.0 9.0 0.00 0.25 0.09 79 1017.5
20260505230107 60 238 5.0 10.0 0.00 0.25 0.09 80 1017.4
20260505224602 60 193 5.0 9.0 0.00 0.25 0.09 80 1017.5
20260505223110 60 226 4.0 10.0 0.00 0.25 0.09 80 1017.6
20260505221559 60 169 5.0 10.0 0.00 0.25 0.09 79 1017.5
20260505220103 60 186 5.0 10.0 0.00 0.25 0.09 80 1017.5
20260505214555 60 208 5.0 9.0 0.00 0.25 0.09 80 1017.6
20260505213100 60 240 4.0 9.0 0.00 0.25 0.09 80 1017.6
20260505211558 60 188 5.0 10.0 0.00 0.25 0.09 79 1017.9
20260505210057 60 214 4.0 9.0 0.00 0.25 0.09 79 1017.7
20260505204609 61 188 4.0 10.0 0.00 0.25 0.09 79 1017.6
20260505203118 60 217 5.0 8.0 0.00 0.25 0.09 78 1017.7
20260505201603 59 225 4.0 8.0 0.00 0.25 0.09 80 1017.7
20260505200055 59 195 4.0 10.0 0.00 0.25 0.09 82 1017.8
20260505194607 59 203 4.0 9.0 0.00 0.25 0.09 83 1017.9
20260505193053 59 201 4.0 9.0 0.00 0.25 0.09 83 1017.8
20260505191558 58 184 3.0 10.0 0.00 0.25 0.09 84 1017.9
20260505190053 58 207 3.0 9.0 0.00 0.25 0.09 85 1017.9
20260505184555 58 253 3.0 7.0 0.00 0.25 0.09 86 1017.9
20260505183100 57 226 4.0 9.0 0.00 0.25 0.09 88 1017.6
20260505181555 56 192 5.0 9.0 0.00 0.25 0.09 89 1017.5
20260505180054 56 228 4.0 10.0 0.00 0.25 0.09 89 1017.5
20260505174557 56 182 4.0 10.0 0.00 0.25 0.09 90 1017.1
20260505173054 56 226 3.0 7.0 0.00 0.25 0.09 90 1017.0
20260505171558 55 224 3.0 8.0 0.00 0.25 0.09 90 1017.0
20260505170105 56 208 3.0 9.0 0.00 0.25 0.09 91 1016.8
20260505164605 55 205 3.0 7.0 0.00 0.25 0.09 91 1016.8
20260505163100 55 151 3.0 7.0 0.00 0.25 0.09 91 1016.5
20260505161555 55 225 2.0 9.0 0.01 0.25 0.09 91 1016.6
20260505153109 55 215 2.0 10.0 0.01 0.25 0.09 91 1016.1
20260505151600 55 0 2.0 11.0 0.00 0.24 0.08 91 1016.2
20260505140107 54 0 2.0 7.0 0.01 0.24 0.08 91 1015.7
20260505130104 54 0 1.0 6.0 0.01 0.23 0.07 91 1015.5
20260505124602 54 0 2.0 7.0 0.01 0.23 0.07 91 1015.3
20260505123107 54 0 2.0 8.0 0.01 0.23 0.07 91 1015.3
20260505121557 54 187 1.0 8.0 0.01 0.23 0.07 91 1015.2
20260505120059 54 206 2.0 6.0 0.00 0.22 0.06 91 1015.4
20260505114559 54 216 3.0 7.0 0.00 0.22 0.06 91 1015.3